Regional Weather Roundup
Issued by NWS

Home | Current Version | Previous Version | Graphics & Text | Print | Product List | Glossary On
Versions: 1 2 3 4 5 6 7 8 9 10 11 12 13 14 15 16 17 18 19 20 21 22 23 24 25 26 27 28 29 30 31 32 33 34 35 36 37 38 39 40 41 42 43 44 45 46 47 48 49 50
000
ASUS43 KLOT 200700
RWRIL

ILLINOIS REGIONAL WEATHER ROUNDUP
NATIONAL WEATHER SERVICE CHICAGO/ROMEOVILLE IL
200 AM CDT SAT SEP 20 2014

NOTE: "FAIR" INDICATES FEW OR NO CLOUDS BELOW 12,000 FEET WITH NO
SIGNIFICANT WEATHER AND/OR OBSTRUCTIONS TO VISIBILITY.

* THESE STATIONS ARE NOT UNDER NWS QUALITY CONTROL. THEY ALSO MAY NOT
  REPORT WEATHER SUCH AS PRECIPITATION OR FOG.

ILZ001-002-007-009-015-016-024-200800-
NORTHWEST ILLINOIS

CITY           SKY/WX    TMP DP  RH WIND       PRES   REMARKS
MOLINE         PTCLDY    65  57  75 SW6       29.92R
STERLING*      PTCLDY    61  55  82 CALM      29.93S
$$

ILZ003-004-008-010-011-017-018-200800-
NORTH CENTRAL ILLINOIS

CITY           SKY/WX    TMP DP  RH WIND       PRES   REMARKS
ROCKFORD       PTCLDY    60  53  77 S8        29.94R
FREEPORT*      MOCLDY    63  58  84 SW12      29.92F
ROCHELLE*      CLEAR     58  53  83 S7        29.94R
$$

ILZ005-006-012>014-019>023-200800-
NORTHEAST ILLINOIS

CITY           SKY/WX    TMP DP  RH WIND       PRES   REMARKS
CHICAGO-OHARE  PTCLDY    64  50  60 SW9G20    29.94R
CHICAGO-MIDWAY PTCLDY    64  52  64 SW12      29.96R
AURORA         CLEAR     57  50  77 S5        29.96R
LANSING*       CLEAR     59  52  76 SW7       29.97R
WAUKEGAN       CLEAR     63  50  62 SW14G22   29.91R
DUPAGE AIRPORT CLEAR     61  51  70 S12       29.94R
WHEELING       CLEAR     65  50  58 S13       29.94R
NORTHERLY ISL    N/A     65  49  56 SW10        N/A
$$

LMZ740>746-200800-
SOUTHERN LAKE MICHIGAN

STATION/POSITION SKY/WX   TEMP    WIND        PRES    VSBY  WAVE
                          AIR SEA DIR/SP/G                  HT/PER
                          (F)     (DEG/KT/KT) (MB)    (MI)  (FT/S)
SOUTHERN BUOY              66 64  190/ 21/ 25 1012.2F         4/ 5
WAUKEGAN HARBOR            66     240/ 14/ 18   N/A
HARRISON CRIB              66     200/ 18/ 20   N/A
BURNHAM HARBOR             65     190/ 10/ 17   N/A
CALUMET HARBOR             64     200/  9/ 12 1012.8F
MICHIGAN CITY              62     160/ 12/ 15   N/A
MICHIGAN CITY 6N           65 65  200/ 12/ 16   N/A           2/ 3
ST. JOSEPH                 63 65  170/ 14/ 17   N/A           3/ 3
$$

ILZ025>027-034>036-040-047-049-050-058-095>099-200800-
WEST-CENTRAL ILLINOIS

CITY           SKY/WX    TMP DP  RH WIND       PRES   REMARKS
QUINCY         CLEAR     63  58  83 S9        29.95R
GALESBURG*     CLEAR     61  58  90 S8        29.95R
MACOMB*        CLEAR     62  58  87 S8        29.97R
$$

ILZ028>032-037-038-041>044-048-051>054-059>061-200800-
CENTRAL ILLINOIS

CITY           SKY/WX    TMP DP  RH WIND       PRES   REMARKS
DECATUR        CLEAR     61  54  77 S10       29.99F
PEORIA         CLEAR     63  54  72 S10       29.96R
SPRINGFIELD    CLEAR     65  56  72 S8        29.98R
TAYLORVILLE    NOT AVBL
$$

ILZ033-039-045-046-055>057-062-063-200800-
EAST-CENTRAL ILLINOIS

CITY           SKY/WX    TMP DP  RH WIND       PRES   REMARKS
CHAMPAIGN      CLEAR     59  53  80 S10       29.99F
MATTOON        CLEAR     60  54  80 S8        29.99F
$$

ILZ079-100>102-200800-
SOUTHWEST ILLINOIS

CITY           SKY/WX    TMP DP  RH WIND       PRES   REMARKS
BELLEVILLE     CLEAR     57  57 100 CALM      29.99F FOG
CAHOKIA*       CLEAR     58  57  97 CALM      29.99F
SPARTA*        CLEAR     57  56  95 CALM      30.02S
$$

ILZ064>066-069>071-074>076-080>082-084>086-088>090-092>094-200800-
SOUTH-CENTRAL ILLINOIS

CITY           SKY/WX    TMP DP  RH WIND       PRES   REMARKS
CARBONDALE     FOG       56  54  93 CALM      30.02F VSB 1/2
MT. VERNON     CLEAR     54  48  82 CALM      30.02F
$$

ILZ067-068-072-073-078-083-087-091-200800-
SOUTHEAST ILLINOIS

CITY           SKY/WX    TMP DP  RH WIND       PRES   REMARKS
LAWRENCEVILLE  CLEAR     54  53  97 CALM      30.02F FOG
ROBINSON*      CLEAR     52  52  99 CALM      30.03F FOG
$$

ABBREVIATIONS USED IN REMARKS
   TC - TEMPERATURE IN CELSIUS
  WCI - WIND CHILL INDEX
   HX - HEAT INDEX
  VSB - VISIBILITY
$$



USA.gov is the U.S. government's official web portal to all federal, state and local government web resources and services.